Weather in Mezhegey

Russia / Tyva Republic     51°15′20″N   94°19′21″E
temp.,
°C
wind,
m/s
gust,
m/s
humid.,
%
clouds,
%
prec.,
mm/h
press.,
hPa
HPBL,
m
5 march, fri
fri501:00−16ssw11760 0.0 103321
04:00−17sse00820 0.0 103221
07:00−18wnw008918 0.0 103221
10:00−14nne229130 0.0 1030111
13:00−12nne229365 0.0 1027186
16:00−12nnw229499 0.0 1025131
19:00−13w228699 0.0 102821
22:00−15ssw118196 0.0 103121
6 march, sat
sat601:00−16ssw118880 0.0 103520
04:00−17ese11840 0.0 103520
07:00−18nw01911 0.0 103620
10:00−14n229588 0.0 103490
13:00−12n229594 0.0 1030148
16:00−11n1195100 0.0 1027101
19:00−14sw1188100 0.0 102821
22:00−14ssw017698 0.0 102821
7 march, sun
sun701:00−15wsw007998 0.0 102821
04:00−16nw008579 0.0 102721
07:00−18wnw008988 0.0 102821
10:00−14nne1194100 0.0 102780
13:00−12nne2197100 0.0 1026150
16:00−10nne219899 0.0 1025107
19:00−12w0193100 0.0 102721
22:00−13wnw0184100 0.0 102921
8 march, mon
mon801:00−15ssw117967 0.0 103121
04:00−16e008158 0.0 103020
07:00−17w008660 0.0 103220
10:00−14n119521 0.0 103050
13:00−10nne219759 0.0 1027148
16:00−9nne219698 0.0 1025128
19:00−11w119297 0.0 102621
22:00−13wsw018151 0.0 102721
9 march, tue
tue901:00−14ssw008047 0.0 102721
04:00−15ssw118168 0.0 102821
07:00−14nnw118785 0.0 103020
10:00−10ne1186100 0.0 103185
13:00−8nne229181 0.0 1029198
16:00−7nne219376 0.0 1028131
19:00−13ssw009957 0.0 103021
22:00−13wsw009466 0.0 103021